NETSAT-4 (46504 NORAD) Tracking and Keplerian Element Data

This shows tracking and keplerian element data for the satellite.

Feedback or suggestion? Click here.




ElementValue
Catalog46504
NameNETSAT-4
Epoch Orbit476
Epoch Day304.79370856
Epoch Year2020
RAAN237.9112
Inclination97.665
Eccentricity0.0011918
Argument of Perigee141.1297
Mean Anonmoly219.0781
Mean Motion15.01837456
Decay Rate-5.4E-07
L11 46504U 20068U 20304.79370856 -.00000054 00000-0 45638-6 0 9991
L22 46504 97.6650 237.9112 0011918 141.1297 219.0781 15.01837456 4769

Live tracking and technical data element details for NETSAT-4 (NORAD 46504). NETSAT-4 can be tracked NOW for your location showing map with azimuth and elevation plus other details from your city location.

Track the satellite on the map from your city or location and see movement details for azimuth, elevation, latitude, longitude, range, height, and movement on the map or in text.







IsCatalogInMostPopularTable: catalog: 46504, numindb: 6
Update: records affected: 1



GetName: 46504 NETSAT-4

Hit Count: updated at: Sat, 31 Oct 2020 10:57:21 GMT